TimeAKST,TemperatureF,Dew PointF,Humidity,Sea Level PressureIn,VisibilityMPH,Wind Direction,Wind SpeedMPH,Gust SpeedMPH,PrecipitationIn,Events,Conditions,WindDirDegrees,DateUTC
12:01 AM,6.1,1.9,83,30.58,4.0,East,6.9,-,0.00,Snow,Light Snow,100,2012-11-07 09:01:00
1:01 AM,6.1,1.9,83,30.58,7.0,ESE,9.2,-,0.00,Snow,Light Snow,110,2012-11-07 10:01:00
2:01 AM,7.0,3.0,84,30.58,9.0,ESE,9.2,-,0.00,Snow,Light Snow,120,2012-11-07 11:01:00
3:01 AM,7.0,3.0,84,30.58,6.0,ESE,5.8,-,0.00,Snow,Light Snow,110,2012-11-07 12:01:00
4:01 AM,7.0,3.0,84,30.59,3.0,Variable,5.8,-,0.00,Snow,Light Snow,0,2012-11-07 13:01:00
4:24 AM,6.8,3.2,85,30.45,2.5,ESE,6.9,-,0.00,Snow,Light Snow,110,2012-11-07 13:24:00
4:34 AM,6.8,3.2,85,30.45,4.0,East,8.1,-,0.00,Snow,Light Snow,90,2012-11-07 13:34:00
5:01 AM,6.1,3.0,87,30.59,5.0,East,8.1,-,0.00,Snow,Light Snow,100,2012-11-07 14:01:00
6:01 AM,7.0,3.0,84,30.59,9.0,East,6.9,-,0.00,Snow,Light Snow,90,2012-11-07 15:01:00
7:01 AM,7.0,3.9,87,30.60,7.0,East,8.1,-,0.00,Snow,Light Snow,100,2012-11-07 16:01:00
8:01 AM,7.0,3.9,87,30.61,7.0,ESE,8.1,-,0.00,Snow,Light Snow,110,2012-11-07 17:01:00
9:01 AM,8.1,5.0,87,30.62,5.0,East,4.6,-,0.00,Snow,Light Snow,100,2012-11-07 18:01:00
10:01 AM,8.1,5.0,87,30.63,6.0,ESE,5.8,-,0.00,Snow,Light Snow,110,2012-11-07 19:01:00
11:01 AM,9.0,5.0,84,30.64,10.0,East,4.6,-,0.00,,Overcast,100,2012-11-07 20:01:00
12:01 PM,9.0,6.1,88,30.65,10.0,East,5.8,-,N/A,,Overcast,90,2012-11-07 21:01:00
12:36 PM,10.4,6.8,85,30.51,10.0,East,4.6,-,N/A,,Overcast,100,2012-11-07 21:36:00
1:01 PM,10.0,6.1,84,30.66,10.0,Variable,3.5,-,N/A,,Overcast,0,2012-11-07 22:01:00
3:01 PM,9.0,6.1,88,30.66,10.0,East,6.9,-,0.00,,Overcast,100,2012-11-08 00:01:00
4:01 PM,8.6,5.0,85,30.52,10.0,East,4.6,-,N/A,,Scattered Clouds,100,2012-11-08 01:01:00
4:14 PM,6.8,5.0,92,30.52,10.0,East,3.5,-,N/A,,Mostly Cloudy,100,2012-11-08 01:14:00
4:58 PM,6.8,3.2,85,30.52,9.0,East,3.5,-,0.00,Snow,Light Snow,80,2012-11-08 01:58:00
5:01 PM,7.0,3.9,87,30.67,9.0,Calm,Calm,-,0.00,Snow,Light Snow,0,2012-11-08 02:01:00
6:01 PM,6.1,3.0,87,30.66,10.0,East,4.6,-,0.00,Snow,Light Snow,90,2012-11-08 03:01:00
7:01 PM,5.0,1.9,87,30.66,10.0,East,5.8,-,0.00,,Clear,80,2012-11-08 04:01:00
8:01 PM,3.9,1.0,88,30.66,10.0,Variable,4.6,-,N/A,,Clear,0,2012-11-08 05:01:00
9:01 PM,1.9,-0.9,88,30.65,10.0,ENE,5.8,-,N/A,,Clear,70,2012-11-08 06:01:00
10:01 PM,1.0,-2.0,87,30.66,9.0,East,3.5,-,0.00,Snow,Light Snow,80,2012-11-08 07:01:00
11:01 PM,1.0,-2.0,87,30.66,9.0,East,5.8,-,0.00,,Clear,80,2012-11-08 08:01:00